Location: Daytona Beach
(29.2106°N, 81.0231°W)
Time: 15:02:20
(UTC-04:00)

X-37B - Pass Details

Date: 23 June 2021
Orbit: 383 x 392 km, 45.0° (Epoch: 01 July)

Event Time Altitude Azimuth Distance (km) Brightness Sun altitude
Rises 22:38:00 0° 275° (W) 2,249 5.2 -23.6°
Reaches altitude 10° 22:40:53 10° 305° (NW) 1,397 4.4 -24.0°
Maximum altitude 22:42:30 13° 336° (NNW) 1,221 4.0 -24.2°
Drops below altitude 10° 22:44:07 10° 7° (N) 1,398 3.9 -24.5°
Sets 22:47:01 0° 36° (NE) 2,253 4.6 -24.9°
